User: anonymous   Login
Location: Caltech
(34.1382°N, 118.1253°W)
Time: 10:01:53
(UTC-08:00)
Language:

Cosmos 676 Rocket - Orbit

View from above orbital plane
View from above orbital plane
View from above satellite
View from above satellite

Ground track
Ground track

The orbit data is extracted from the following two-line orbital elements,

1 07434U 74071B   17057.50377099  .00000101  00000-0  43104-4 0  9995
2 07434  74.0458  57.2891 0020825 351.4878   8.5918 14.36619644220811
Epoch (UTC): 26 February 2017 12:05:25
Eccentricity: 0.0020825
inclination: 74.0458°
perigee height: 755 km
apogee height: 784 km
right ascension of ascending node: 57.2891°
argument of perigee: 351.4878°
revolutions per day: 14.36619644
mean anomaly at epoch: 8.5918°
orbit number at epoch: 22081

The dashed part of the orbit path shows where the satellite is in the earth's shadow,  

DLR